Location: Rio de Janeiro
(22.9068°S, 43.1729°W)
Time: 03:29:56
(UTC-03:00)

ISS - Visible Passes

Search period start: 01 December 2023 00:00
Search period end: 11 December 2023 00:00
Orbit: 416 x 417 km, 51.6° (Epoch: 30 November)

Date Brightness Start Highest point End Pass type
(mag) Time Alt. Az. Time Alt. Az. Time Alt. Az.
08 Dec -2.2 19:59:19 10° NNW 20:00:48 24° NNW 20:00:48 24° NNW visible
09 Dec -0.2 04:13:54 10° SSE 04:15:11 12° SE 04:16:29 10° ESE visible
09 Dec -2.9 19:11:02 10° N 19:13:56 28° NE 19:16:52 10° ESE visible
09 Dec -0.5 20:48:39 10° W 20:50:38 15° SW 20:52:39 10° S visible
10 Dec -1.5 19:58:47 10° WNW 20:01:43 28° SW 20:04:41 10° SSE visible
